Big Bear City, CA

2:08 PM PDT on September 22, 2019 (GMT -0700)
Big Bear City

Weather History for KL35 - May, 2019

Change the Weather History Date:

Tuesday, May 14, 2019

  Actual Average (WUND) Record (WUND)
Temperature  
Mean Temperature 48 °F -  
Max Temperature 64 °F - - (-1)
Min Temperature 33 °F - - (-1)
Degree Days  
Heating Degree Days 16    
Moisture  
Dew Point 30 °F    
Average Humidity 49    
Maximum Humidity 87    
Minimum Humidity 22    
Precipitation  
Precipitation 0.00 in - - ()
Sea Level Pressure  
Sea Level Pressure 30.17 in    
Wind  
Wind Speed 3 mph (WSW)    
Max Wind Speed 15 mph    
Max Gust Speed 22 mph    
Visibility 10 miles    
Events      
Averages and records for this station are not official NWS values.
T = Trace of Precipitation, MM = Missing Value Source: NWS Daily Summary

Daily Weather History Graph

Daily Weather History Graph

Search for Another Location

Airport or City:

Astronomy

May. 14, 2019 Rise Set
Actual Time 5:46 AM PDT 7:41 PM PDT
Civil Twilight 5:18 AM PDT 8:09 PM PDT
Nautical Twilight 4:45 AM PDT 8:43 PM PDT
Astronomical Twilight 4:09 AM PDT 9:19 PM PDT
Moon 3:23 PM PDT (5/14) 3:24 AM PDT (5/14)
Length of Visible Light 14h 50m
Length of Day
13h 55m
Waxing Gibbous, 80% of the Moon is Illuminated
May 14
Waxing Gibbous
May 18
Full
May 26
Last Quarter
Jun 3
New
Jun 9
First Quarter

Hourly Weather History & Observations

Time (PDT) Temp. Windchill Dew Point Humidity Pressure Visibility Wind Dir Wind Speed Gust Speed Precip Events Conditions
12:15 AM 41.0 °F - 32.0 °F 70% 30.19 in 10.0 mi Calm Calm - N/A   Clear
12:35 AM 41.0 °F - 32.0 °F 70% 30.19 in 10.0 mi Calm Calm - N/A   Clear
12:55 AM 41.0 °F - 32.0 °F 70% 30.19 in 10.0 mi Calm Calm - N/A   Clear
1:15 AM 41.0 °F - 32.0 °F 70% 30.19 in 10.0 mi Calm Calm - N/A   Clear
1:35 AM 39.2 °F - 32.0 °F 75% 30.18 in 10.0 mi Calm Calm - N/A   Clear
1:55 AM 39.2 °F - 32.0 °F 75% 30.18 in 10.0 mi Calm Calm - N/A   Clear
2:15 AM 37.4 °F - 32.0 °F 81% 30.18 in 10.0 mi Calm Calm - N/A   Clear
2:35 AM 37.4 °F - 32.0 °F 81% 30.17 in 10.0 mi Calm Calm - N/A   Clear
2:55 AM 37.4 °F - 32.0 °F 81% 30.17 in 10.0 mi Calm Calm - N/A   Clear
3:15 AM 37.4 °F - 32.0 °F 81% 30.17 in 10.0 mi Calm Calm - N/A   Clear
3:35 AM 37.4 °F - 32.0 °F 81% 30.17 in 10.0 mi Calm Calm - N/A   Clear
3:55 AM 35.6 °F - 32.0 °F 87% 30.17 in 10.0 mi Calm Calm - N/A   Clear
4:15 AM 37.4 °F - 32.0 °F 81% 30.17 in 10.0 mi Calm Calm - N/A   Clear
4:35 AM 35.6 °F - 32.0 °F 87% 30.17 in 10.0 mi Calm Calm - N/A   Clear
4:55 AM 35.6 °F - 32.0 °F 87% 30.17 in 10.0 mi Calm Calm - N/A   Clear
5:15 AM 33.8 °F - 30.2 °F 87% 30.17 in 10.0 mi Calm Calm - N/A   Clear
5:35 AM 33.8 °F - 30.2 °F 87% 30.18 in 10.0 mi Calm Calm - N/A   Clear
5:55 AM 33.8 °F - 30.2 °F 87% 30.18 in 10.0 mi Calm Calm - N/A   Clear
6:10 AM 33.8 °F - 30.2 °F 87% 30.18 in 10.0 mi Calm Calm - N/A   Clear
6:35 AM 35.6 °F - 32.0 °F 87% 30.19 in 10.0 mi Calm Calm - N/A   Clear
6:55 AM 37.4 °F 34.9 °F 33.8 °F 87% 30.19 in 10.0 mi West 3.5 mph - N/A   Clear
7:15 AM 42.8 °F - 33.8 °F 70% 30.19 in 10.0 mi Calm Calm - N/A   Clear
7:35 AM 46.4 °F - 35.6 °F 66% 30.19 in 10.0 mi Calm Calm - N/A   Clear
7:55 AM 51.8 °F - 32.0 °F 47% 30.19 in 10.0 mi West 4.6 mph - N/A   Clear
8:15 AM 55.4 °F - 30.2 °F 38% 30.19 in 10.0 mi WSW 3.5 mph - N/A   Clear
8:35 AM 55.4 °F - 24.8 °F 31% 30.19 in 10.0 mi West 3.5 mph - N/A   Clear
8:55 AM 57.2 °F - 23.0 °F 27% 30.19 in 10.0 mi SW 4.6 mph - N/A   Clear
9:15 AM 59.0 °F - 23.0 °F 25% 30.20 in 10.0 mi West 5.8 mph - N/A   Clear
9:35 AM 59.0 °F - 19.4 °F 22% 30.20 in 10.0 mi South 3.5 mph - N/A   Clear
9:55 AM 60.8 °F - 23.0 °F 23% 30.20 in 10.0 mi West 12.7 mph 17.3 mph N/A   Clear
10:15 AM 60.8 °F - 23.0 °F 23% 30.20 in 10.0 mi WSW 8.1 mph - N/A   Clear
10:35 AM 60.8 °F - 21.2 °F 22% 30.20 in 10.0 mi SSW 5.8 mph - N/A   Clear
10:55 AM 60.8 °F - 23.0 °F 23% 30.20 in 10.0 mi SW 5.8 mph - N/A   Clear
11:15 AM 62.6 °F - 24.8 °F 24% 30.20 in 10.0 mi WSW 3.5 mph - N/A   Clear
11:35 AM 62.6 °F - 26.6 °F 26% 30.21 in 10.0 mi SSW 4.6 mph - N/A   Clear
11:55 AM 62.6 °F - 26.6 °F 26% 30.21 in 10.0 mi SW 6.9 mph - N/A   Clear
12:15 PM 62.6 °F - 26.6 °F 26% 30.21 in 10.0 mi West 15.0 mph 21.9 mph N/A   Clear
12:35 PM 62.6 °F - 28.4 °F 27% 30.20 in 10.0 mi WSW 6.9 mph 20.7 mph N/A   Clear
12:55 PM 62.6 °F - 28.4 °F 27% 30.20 in 10.0 mi SW 10.4 mph 17.3 mph N/A   Clear
1:15 PM 62.6 °F - 28.4 °F 27% 30.19 in 10.0 mi SSW 10.4 mph 19.6 mph N/A   Clear
1:35 PM 62.6 °F - 30.2 °F 30% 30.19 in 10.0 mi SSW 8.1 mph 17.3 mph N/A   Clear
1:55 PM 62.6 °F - 30.2 °F 30% 30.19 in 10.0 mi SSW 9.2 mph 16.1 mph N/A   Clear
2:15 PM 62.6 °F - 32.0 °F 32% 30.18 in 10.0 mi SSW 6.9 mph 16.1 mph N/A   Clear
2:35 PM 64.4 °F - 32.0 °F 30% 30.17 in 10.0 mi WSW 11.5 mph 17.3 mph N/A   Clear
2:55 PM 62.6 °F - 32.0 °F 32% 30.17 in 10.0 mi WSW 10.4 mph 21.9 mph N/A   Clear
3:15 PM 62.6 °F - 30.2 °F 30% 30.16 in 10.0 mi WSW 12.7 mph 19.6 mph N/A   Clear
3:35 PM 62.6 °F - 30.2 °F 30% 30.16 in 10.0 mi WSW 12.7 mph 20.7 mph N/A   Clear
3:55 PM 62.6 °F - 32.0 °F 32% 30.16 in 10.0 mi WSW 6.9 mph 18.4 mph N/A   Clear
4:15 PM 62.6 °F - 32.0 °F 32% 30.16 in 10.0 mi WSW 10.4 mph 16.1 mph N/A   Clear
4:35 PM 62.6 °F - 35.6 °F 37% 30.16 in 10.0 mi WSW 10.4 mph 18.4 mph N/A   Clear
4:55 PM 62.6 °F - 35.6 °F 37% 30.15 in 10.0 mi SW 6.9 mph - N/A   Clear
5:15 PM 60.8 °F - 35.6 °F 39% 30.15 in 10.0 mi WSW 10.4 mph 17.3 mph N/A   Clear
5:35 PM 60.8 °F - 35.6 °F 39% 30.15 in 10.0 mi WSW 9.2 mph 17.3 mph N/A   Clear
5:55 PM 60.8 °F - 37.4 °F 42% 30.14 in 10.0 mi WSW 5.8 mph 18.4 mph N/A   Clear
6:15 PM 59.0 °F - 37.4 °F 45% 30.14 in 10.0 mi WSW 10.4 mph 19.6 mph N/A   Clear
6:35 PM 59.0 °F - 37.4 °F 45% 30.15 in 10.0 mi WSW 6.9 mph - N/A   Clear
6:55 PM 57.2 °F - 35.6 °F 44% 30.14 in 10.0 mi West 8.1 mph 11.5 mph N/A   Clear
7:15 PM 55.4 °F - 33.8 °F 44% 30.14 in 10.0 mi WSW 5.8 mph - N/A   Clear
7:35 PM 55.4 °F - 33.8 °F 44% 30.15 in 10.0 mi West 9.2 mph - N/A   Clear
7:55 PM 53.6 °F - 32.0 °F 44% 30.15 in 10.0 mi Calm Calm - N/A   Clear
8:15 PM 53.6 °F - 32.0 °F 44% 30.15 in 10.0 mi Calm Calm - N/A   Clear
8:35 PM 53.6 °F - 30.2 °F 41% 30.16 in 10.0 mi WSW 3.5 mph - N/A   Clear
8:55 PM 51.8 °F - 30.2 °F 44% 30.16 in 10.0 mi West 6.9 mph - N/A   Clear
9:15 PM 53.6 °F - 28.4 °F 38% 30.16 in 10.0 mi Calm Calm - N/A   Clear
9:35 PM 51.8 °F - 28.4 °F 41% 30.16 in 10.0 mi WSW 5.8 mph - N/A   Clear
9:55 PM 51.8 °F - 28.4 °F 41% 30.16 in 10.0 mi WSW 6.9 mph - N/A   Clear
10:15 PM 51.8 °F - 26.6 °F 38% 30.16 in 10.0 mi Calm Calm - N/A   Clear
10:35 PM 51.8 °F - 26.6 °F 38% 30.16 in 10.0 mi Calm Calm - N/A   Clear
10:55 PM 51.8 °F - 26.6 °F 38% 30.16 in 10.0 mi Calm Calm - N/A   Clear
11:15 PM 50.0 °F - 30.2 °F 47% 30.15 in 10.0 mi Calm Calm - N/A   Clear
11:35 PM 51.8 °F - 28.4 °F 41% 30.14 in 10.0 mi WSW 4.6 mph - N/A   Clear
11:55 PM 50.0 °F - 30.2 °F 47% 30.14 in 10.0 mi Calm Calm - N/A   Clear